Location: Litvinovka
(48.6667°N, 34.3500°E)
Time: 06:45:32
(UTC+00:00)

Cosmos 2142 Rocket - Pass Details

Date: 18 September 2020
Orbit: 952 x 1005 km, 82.9° (Epoch: 19 October)

Event Time Altitude Azimuth Distance (km) Brightness Sun altitude
Exits shadow 18:36:37 67° 137° (SE) 1,063 4.4 -26.6°
Maximum altitude 18:37:15 73° 95° (E) 1,031 4.4 -26.7°
Drops below altitude 10° 18:43:29 10° 13° (NNE) 2,730 7.1 -27.5°
Sets 18:46:00 0° 11° (N) 3,674 7.9 -27.8°
